Location: Newark
(25.6108°S, 54.5803°W)
Time: 08:23:46
(UTC+00:00)

Tiros 1 - Pass Details

Date: 28 October 2020
Orbit: 630 x 664 km, 48.4° (Epoch: 29 November)

Event Time Altitude Azimuth Distance (km) Brightness Sun altitude
Rises 16:05:23 0° 352° (N) 2,944 10.7 74.1°
Reaches altitude 10° 16:08:21 10° 11° (N) 2,048 10.0 73.7°
Maximum altitude 16:11:30 18° 53° (NE) 1,610 9.4 73.2°
Drops below altitude 10° 16:14:41 10° 95° (E) 2,076 9.7 72.6°
Sets 16:17:43 0° 114° (ESE) 3,001 10.4 72.1°
